QPF
0.00 0.00 0.00 0.00 0.00 0.00 0.00 0.00 0.00 0.00 0.00 0.00 0.00 0.00 0.00 0.00 0.00 0.00 0.00 0.01 0.02 0.02 0.04 0.07 0.08 0.08 0.11 0.18 0.27 0.36 0.37 0.34 0.33 0.28 0.21 0.14 0.10 0.11 0.10 0.06 0.04 0.04 0.03 0.03
0.00 0.00 0.00 0.00 0.00 0.00 0.00 0.00 0.00 0.00 0.00 0.00 0.00 0.00 0.00 0.00 0.00 0.00 0.01 0.01 0.01 0.02 0.03 0.04 0.06 0.07 0.11 0.18 0.30 0.47 0.43 0.38 0.30 0.26 0.23 0.19 0.16 0.17 0.15 0.11 0.07 0.06 0.07 0.06
0.00 0.00 0.00 0.00 0.00 0.00 0.00 0.00 0.00 0.00 0.00 0.00 0.00 0.00 0.00 0.00 0.00 0.01 0.01 0.01 0.01 0.01 0.03 0.05 0.05 0.07 0.10 0.13 0.18 0.28 0.32 0.32 0.28 0.26 0.24 0.21 0.19 0.18 0.17 0.13 0.09 0.06 0.06 0.06
0.00 0.00 0.00 0.00 0.00 0.00 0.00 0.00 0.00 0.00 0.00 0.00 0.00 0.00 0.00 0.00 0.00 0.00 0.01 0.01 0.01 0.01 0.03 0.04 0.04 0.05 0.07 0.10 0.14 0.24 0.28 0.26 0.23 0.21 0.18 0.13 0.10 0.10 0.09 0.08 0.09 0.08 0.08 0.06
0.00 0.00 0.00 0.00 0.00 0.00 0.00 0.00 0.00 0.00 0.00 0.00 0.00 0.00 0.00 0.00 0.00 0.00 0.00 0.00 0.00 0.01 0.02 0.02 0.03 0.03 0.05 0.10 0.17 0.20 0.23 0.22 0.20 0.16 0.14 0.10 0.08 0.09 0.10 0.09 0.09 0.08 0.07 0.06
0.00 0.00 0.00 0.00 0.00 0.00 0.00 0.00 0.00 0.00 0.00 0.00 0.00 0.00 0.00 0.00 0.00 0.00 0.00 0.00 0.00 0.00 0.01 0.02 0.02 0.03 0.05 0.09 0.14 0.17 0.16 0.15 0.16 0.16 0.13 0.09 0.07 0.07 0.08 0.06 0.05 0.04 0.04 0.04
0.00 0.00 0.00 0.00 0.00 0.00 0.00 0.00 0.00 0.00 0.00 0.00 0.00 0.00 0.00 0.00 0.00 0.00 0.00 0.00 0.00 0.00 0.01 0.02 0.02 0.02 0.04 0.07 0.09 0.10 0.09 0.10 0.11 0.14 0.15 0.10 0.08 0.07 0.06 0.05 0.04 0.04 0.03 0.03
0.00 0.00 0.00 0.00 0.00 0.00 0.00 0.00 0.00 0.00 0.00 0.00 0.00 0.00 0.00 0.00 0.00 0.00 0.00 0.00 0.00 0.00 0.01 0.01 0.01 0.03 0.03 0.04 0.04 0.04 0.05 0.07 0.10 0.12 0.14 0.12 0.10 0.09 0.07 0.06 0.05 0.04 0.04 0.03
0.00 0.00 0.00 0.00 0.00 0.00 0.00 0.00 0.00 0.00 0.00 0.00 0.00 0.00 0.00 0.00 0.00 0.00 0.00 0.00 0.00 0.01 0.01 0.02 0.03 0.03 0.02 0.02 0.03 0.04 0.04 0.06 0.08 0.09 0.12 0.13 0.11 0.11 0.08 0.07 0.07 0.06 0.05 0.04
0.00 0.00 0.00 0.00 0.00 0.00 0.00 0.00 0.00 0.00 0.00 0.00 0.00 0.00 0.00 0.00 0.00 0.00 0.00 0.00 0.01 0.01 0.02 0.03 0.04 0.03 0.03 0.03 0.02 0.03 0.03 0.04 0.06 0.08 0.10 0.12 0.11 0.12 0.11 0.12 0.11 0.07 0.05 0.05
0.00 0.00 0.00 0.00 0.00 0.00 0.00 0.00 0.00 0.00 0.00 0.00 0.00 0.00 0.00 0.01 0.00 0.00 0.00 0.00 0.00 0.01 0.02 0.02 0.02 0.03 0.04 0.04 0.03 0.02 0.02 0.03 0.05 0.07 0.09 0.10 0.11 0.14 0.14 0.14 0.14 0.11 0.08 0.07
0.00 0.00 0.00 0.00 0.00 0.00 0.00 0.00 0.00 0.00 0.00 0.00 0.00 0.00 0.00 0.00 0.00 0.00 0.00 0.00 0.01 0.00 0.01 0.01 0.02 0.03 0.03 0.02 0.02 0.02 0.02 0.03 0.03 0.05 0.08 0.08 0.10 0.11 0.10 0.11 0.14 0.14 0.11 0.10
0.00 0.00 0.00 0.00 0.00 0.00 0.00 0.00 0.00 0.00 0.00 0.00 0.00 0.00 0.00 0.00 0.00 0.00 0.00 0.00 0.00 0.01 0.01 0.01 0.01 0.02 0.02 0.01 0.01 0.01 0.02 0.02 0.03 0.04 0.05 0.06 0.07 0.09 0.10 0.09 0.09 0.10 0.10 0.10
0.00 0.00 0.00 0.00 0.00 0.00 0.00 0.00 0.00 0.00 0.00 0.00 0.00 0.00 0.00 0.00 0.00 0.00 0.00 0.00 0.01 0.01 0.01 0.01 0.02 0.02 0.01 0.01 0.01 0.01 0.02 0.02 0.03 0.04 0.04 0.06 0.08 0.10 0.09 0.09 0.10 0.09 0.11 0.11
0.00 0.00 0.00 0.00 0.00 0.00 0.00 0.00 0.00 0.00 0.00 0.00 0.00 0.00 0.00 0.00 0.00 0.00 0.00 0.00 0.01 0.01 0.01 0.01 0.01 0.01 0.02 0.03 0.03 0.02 0.02 0.03 0.04 0.05 0.06 0.08 0.10 0.11 0.14 0.13 0.13 0.14 0.14 0.14
0.00 0.00 0.00 0.00 0.00 0.00 0.00 0.00 0.00 0.00 0.00 0.00 0.00 0.00 0.00 0.00 0.00 0.01 0.01 0.00 0.00 0.01 0.01 0.01 0.02 0.03 0.04 0.04 0.04 0.04 0.04 0.04 0.04 0.05 0.07 0.11 0.13 0.15 0.18 0.19 0.16 0.14 0.13 0.15
0.00 0.00 0.00 0.00 0.00 0.00 0.00 0.00 0.00 0.00 0.00 0.00 0.00 0.00 0.00 0.01 0.01 0.01 0.01 0.01 0.01 0.00 0.01 0.01 0.03 0.05 0.07 0.07 0.07 0.06 0.06 0.06 0.07 0.10 0.12 0.12 0.14 0.16 0.15 0.15 0.15 0.14 0.12 0.13
0.00 0.00 0.00 0.00 0.00 0.00 0.00 0.00 0.00 0.00 0.00 0.00 0.00 0.01 0.01 0.01 0.01 0.01 0.01 0.01 0.01 0.01 0.01 0.02 0.04 0.08 0.11 0.12 0.11 0.10 0.11 0.09 0.09 0.10 0.11 0.12 0.15 0.14 0.13 0.14 0.14 0.11 0.09 0.09
0.00 0.00 0.00 0.00 0.00 0.00 0.00 0.00 0.00 0.00 0.01 0.01 0.01 0.01 0.01 0.01 0.02 0.01 0.01 0.00 0.00 0.00 0.01 0.03 0.07 0.10 0.11 0.13 0.14 0.12 0.14 0.12 0.11 0.11 0.10 0.11 0.12 0.12 0.11 0.12 0.13 0.10 0.08 0.07
0.00 0.00 0.00 0.00 0.00 0.00 0.00 0.00 0.01 0.01 0.01 0.01 0.01 0.02 0.02 0.02 0.01 0.01 0.01 0.00 0.00 0.00 0.01 0.03 0.06 0.10 0.11 0.11 0.10 0.10 0.13 0.14 0.13 0.16 0.17 0.16 0.15 0.14 0.13 0.14 0.14 0.12 0.11 0.10
0.00 0.00 0.00 0.00 0.00 0.00 0.00 0.00 0.01 0.01 0.00 0.00 0.01 0.01 0.01 0.01 0.01 0.00 0.00 0.00 0.00 0.01 0.01 0.03 0.05 0.09 0.11 0.12 0.13 0.13 0.12 0.13 0.15 0.17 0.18 0.16 0.16 0.16 0.15 0.15 0.15 0.14 0.14 0.12
0.00 0.00 0.00 0.00 0.00 0.00 0.01 0.01 0.01 0.01 0.01 0.01 0.01 0.01 0.01 0.01 0.01 0.00 0.00 0.00 0.00 0.00 0.01 0.03 0.05 0.08 0.10 0.12 0.15 0.17 0.15 0.13 0.14 0.17 0.16 0.15 0.14 0.14 0.13 0.12 0.13 0.13 0.13 0.12
0.01 0.01 0.01 0.01 0.01 0.01 0.01 0.01 0.01 0.01 0.01 0.01 0.01 0.00 0.01 0.01 0.01 0.01 0.00 0.00 0.00 0.00 0.01 0.02 0.04 0.06 0.07 0.09 0.13 0.16 0.18 0.18 0.17 0.17 0.19 0.19 0.18 0.16 0.15 0.16 0.16 0.16 0.13 0.12
0.01 0.01 0.02 0.02 0.02 0.02 0.02 0.02 0.01 0.01 0.01 0.01 0.01 0.00 0.01 0.02 0.02 0.02 0.01 0.01 0.01 0.01 0.01 0.02 0.04 0.06 0.07 0.08 0.11 0.13 0.18 0.21 0.21 0.19 0.18 0.18 0.18 0.20 0.21 0.22 0.22 0.20 0.18 0.15
0.01 0.01 0.01 0.02 0.02 0.02 0.02 0.01 0.01 0.01 0.01 0.01 0.01 0.00 0.01 0.01 0.02 0.02 0.02 0.02 0.02 0.02 0.02 0.02 0.04 0.05 0.05 0.07 0.09 0.11 0.14 0.17 0.17 0.18 0.19 0.19 0.19 0.20 0.20 0.19 0.20 0.19 0.17 0.16
0.01 0.01 0.01 0.02 0.02 0.02 0.02 0.02 0.01 0.01 0.02 0.01 0.01 0.00 0.00 0.00 0.01 0.02 0.02 0.02 0.02 0.02 0.03 0.03 0.05 0.06 0.05 0.07 0.09 0.09 0.10 0.12 0.15 0.17 0.17 0.18 0.17 0.17 0.17 0.16 0.15 0.15 0.13 0.12
MSLP
1010.95 1011.73 1012.33 1012.73 1012.96 1013.05 1013.03 1012.93 1012.73 1012.45 1012.05 1011.53 1010.91 1010.20 1009.45 1008.74 1008.14 1007.69 1007.43 1007.37 1007.47 1007.70 1007.99 1008.31 1008.62 1008.92 1009.23 1009.57 1009.98 1010.50 1011.14 1011.86 1012.63 1013.39 1014.08 1014.64 1015.06 1015.31 1015.44 1015.49 1015.51 1015.56 1015.69 1015.91
1011.32 1011.99 1012.46 1012.75 1012.92 1013.01 1013.06 1013.09 1013.06 1012.95 1012.70 1012.29 1011.70 1010.95 1010.11 1009.26 1008.49 1007.88 1007.49 1007.33 1007.38 1007.59 1007.90 1008.23 1008.55 1008.84 1009.12 1009.43 1009.80 1010.28 1010.89 1011.61 1012.40 1013.20 1013.93 1014.53 1014.96 1015.22 1015.32 1015.33 1015.31 1015.32 1015.42 1015.63
1011.40 1011.92 1012.26 1012.45 1012.58 1012.71 1012.88 1013.07 1013.26 1013.37 1013.31 1013.03 1012.50 1011.74 1010.82 1009.82 1008.89 1008.12 1007.58 1007.31 1007.29 1007.46 1007.76 1008.10 1008.43 1008.73 1009.00 1009.27 1009.61 1010.06 1010.65 1011.36 1012.16 1012.97 1013.73 1014.36 1014.82 1015.09 1015.19 1015.18 1015.14 1015.13 1015.21 1015.42
1011.22 1011.59 1011.79 1011.90 1012.03 1012.23 1012.55 1012.96 1013.39 1013.74 1013.90 1013.78 1013.33 1012.58 1011.58 1010.45 1009.35 1008.41 1007.71 1007.32 1007.21 1007.34 1007.62 1007.97 1008.32 1008.62 1008.89 1009.15 1009.46 1009.87 1010.42 1011.11 1011.89 1012.71 1013.48 1014.14 1014.62 1014.92 1015.04 1015.04 1015.00 1014.99 1015.08 1015.29
1010.88 1011.09 1011.18 1011.24 1011.39 1011.70 1012.20 1012.84 1013.52 1014.13 1014.50 1014.54 1014.18 1013.43 1012.37 1011.12 1009.87 1008.76 1007.91 1007.38 1007.19 1007.26 1007.53 1007.89 1008.26 1008.58 1008.85 1009.10 1009.38 1009.75 1010.25 1010.88 1011.62 1012.41 1013.18 1013.85 1014.36 1014.69 1014.85 1014.89 1014.88 1014.90 1015.00 1015.22
1010.49 1010.56 1010.57 1010.61 1010.81 1011.24 1011.91 1012.77 1013.69 1014.52 1015.08 1015.26 1014.97 1014.23 1013.12 1011.78 1010.39 1009.14 1008.15 1007.52 1007.24 1007.27 1007.53 1007.90 1008.29 1008.63 1008.91 1009.15 1009.40 1009.71 1010.14 1010.69 1011.36 1012.09 1012.82 1013.48 1014.01 1014.38 1014.59 1014.70 1014.75 1014.81 1014.95 1015.19
1010.14 1010.11 1010.06 1010.12 1010.38 1010.93 1011.75 1012.78 1013.89 1014.88 1015.59 1015.86 1015.63 1014.90 1013.74 1012.33 1010.85 1009.49 1008.41 1007.69 1007.36 1007.37 1007.62 1008.02 1008.43 1008.80 1009.09 1009.32 1009.52 1009.76 1010.09 1010.54 1011.10 1011.74 1012.41 1013.04 1013.57 1013.98 1014.26 1014.45 1014.58 1014.71 1014.90 1015.17
1009.89 1009.80 1009.74 1009.81 1010.14 1010.77 1011.70 1012.84 1014.05 1015.13 1015.91 1016.23 1016.02 1015.29 1014.12 1012.67 1011.15 1009.74 1008.62 1007.86 1007.51 1007.52 1007.79 1008.21 1008.66 1009.05 1009.35 1009.56 1009.72 1009.87 1010.09 1010.42 1010.85 1011.38 1011.96 1012.54 1013.06 1013.51 1013.86 1014.13 1014.36 1014.58 1014.84 1015.16
1009.74 1009.63 1009.58 1009.68 1010.05 1010.73 1011.70 1012.87 1014.09 1015.17 1015.95 1016.26 1016.05 1015.32 1014.16 1012.73 1011.22 1009.83 1008.72 1007.99 1007.66 1007.69 1007.99 1008.44 1008.92 1009.34 1009.65 1009.84 1009.94 1010.02 1010.13 1010.32 1010.62 1011.03 1011.50 1012.02 1012.53 1013.00 1013.41 1013.78 1014.10 1014.42 1014.76 1015.13
1009.65 1009.55 1009.53 1009.67 1010.06 1010.73 1011.66 1012.78 1013.92 1014.92 1015.62 1015.89 1015.66 1014.94 1013.83 1012.46 1011.03 1009.73 1008.70 1008.03 1007.76 1007.83 1008.17 1008.66 1009.16 1009.60 1009.91 1010.08 1010.15 1010.16 1010.18 1010.26 1010.43 1010.72 1011.10 1011.55 1012.03 1012.51 1012.98 1013.42 1013.84 1014.25 1014.67 1015.10
1009.55 1009.50 1009.52 1009.68 1010.06 1010.68 1011.52 1012.49 1013.49 1014.34 1014.92 1015.10 1014.85 1014.17 1013.13 1011.89 1010.61 1009.45 1008.54 1007.99 1007.79 1007.92 1008.29 1008.80 1009.32 1009.76 1010.08 1010.26 1010.30 1010.28 1010.23 1010.23 1010.32 1010.51 1010.80 1011.19 1011.64 1012.12 1012.63 1013.13 1013.63 1014.12 1014.60 1015.09
1009.41 1009.42 1009.49 1009.66 1010.00 1010.53 1011.22 1012.02 1012.81 1013.48 1013.90 1014.00 1013.73 1013.11 1012.20 1011.12 1010.03 1009.05 1008.31 1007.88 1007.77 1007.95 1008.34 1008.85 1009.37 1009.82 1010.14 1010.33 1010.38 1010.36 1010.30 1010.26 1010.30 1010.43 1010.66 1011.00 1011.41 1011.89 1012.41 1012.95 1013.50 1014.05 1014.60 1015.13
1009.22 1009.29 1009.40 1009.58 1009.87 1010.28 1010.81 1011.40 1011.97 1012.44 1012.72 1012.73 1012.46 1011.92 1011.16 1010.29 1009.41 1008.65 1008.08 1007.77 1007.74 1007.94 1008.33 1008.82 1009.31 1009.75 1010.09 1010.29 1010.39 1010.40 1010.37 1010.36 1010.39 1010.50 1010.71 1011.01 1011.40 1011.86 1012.38 1012.93 1013.51 1014.10 1014.68 1015.25
1009.00 1009.14 1009.29 1009.46 1009.69 1009.98 1010.34 1010.72 1011.08 1011.36 1011.50 1011.46 1011.21 1010.77 1010.19 1009.53 1008.87 1008.31 1007.92 1007.72 1007.73 1007.94 1008.29 1008.73 1009.18 1009.59 1009.93 1010.17 1010.32 1010.41 1010.45 1010.50 1010.58 1010.72 1010.93 1011.22 1011.60 1012.04 1012.54 1013.09 1013.67 1014.28 1014.88 1015.47
1008.84 1009.03 1009.20 1009.35 1009.52 1009.70 1009.89 1010.09 1010.27 1010.39 1010.42 1010.34 1010.13 1009.81 1009.40 1008.94 1008.50 1008.13 1007.87 1007.76 1007.79 1007.97 1008.25 1008.61 1008.99 1009.36 1009.69 1009.96 1010.18 1010.36 1010.52 1010.67 1010.83 1011.03 1011.29 1011.59 1011.96 1012.39 1012.87 1013.41 1013.99 1014.59 1015.20 1015.81
1008.80 1009.01 1009.19 1009.32 1009.43 1009.50 1009.56 1009.61 1009.63 1009.62 1009.58 1009.48 1009.32 1009.11 1008.86 1008.59 1008.33 1008.12 1007.97 1007.90 1007.93 1008.04 1008.23 1008.48 1008.77 1009.07 1009.38 1009.69 1009.98 1010.26 1010.53 1010.80 1011.08 1011.37 1011.69 1012.03 1012.42 1012.85 1013.33 1013.86 1014.43 1015.03 1015.65 1016.26
1008.93 1009.15 1009.31 1009.41 1009.45 1009.44 1009.39 1009.31 1009.22 1009.12 1009.02 1008.91 1008.81 1008.70 1008.58 1008.47 1008.36 1008.26 1008.18 1008.13 1008.12 1008.15 1008.23 1008.36 1008.53 1008.76 1009.04 1009.35 1009.69 1010.06 1010.45 1010.84 1011.24 1011.64 1012.05 1012.46 1012.90 1013.36 1013.86 1014.40 1014.97 1015.58 1016.21 1016.84
1009.25 1009.44 1009.57 1009.62 1009.61 1009.53 1009.39 1009.22 1009.04 1008.88 1008.74 1008.64 1008.58 1008.55 1008.53 1008.53 1008.53 1008.50 1008.46 1008.41 1008.34 1008.28 1008.24 1008.24 1008.30 1008.44 1008.66 1008.95 1009.32 1009.76 1010.24 1010.75 1011.27 1011.78 1012.30 1012.81 1013.32 1013.85 1014.40 1014.98 1015.59 1016.23 1016.88 1017.53
1009.71 1009.84 1009.92 1009.92 1009.85 1009.71 1009.51 1009.28 1009.05 1008.85 1008.69 1008.59 1008.56 1008.58 1008.64 1008.71 1008.76 1008.78 1008.76 1008.68 1008.56 1008.41 1008.26 1008.14 1008.09 1008.13 1008.27 1008.53 1008.90 1009.37 1009.91 1010.51 1011.14 1011.77 1012.40 1013.03 1013.65 1014.28 1014.92 1015.58 1016.26 1016.95 1017.64 1018.32
1010.22 1010.28 1010.29 1010.24 1010.12 1009.94 1009.70 1009.44 1009.18 1008.96 1008.79 1008.70 1008.68 1008.72 1008.82 1008.92 1009.01 1009.05 1009.03 1008.93 1008.76 1008.54 1008.30 1008.08 1007.93 1007.86 1007.93 1008.13 1008.47 1008.94 1009.52 1010.18 1010.90 1011.64 1012.40 1013.15 1013.91 1014.67 1015.43 1016.19 1016.96 1017.72 1018.47 1019.18
1010.67 1010.65 1010.60 1010.50 1010.34 1010.14 1009.89 1009.62 1009.37 1009.14 1008.98 1008.89 1008.87 1008.92 1009.02 1009.14 1009.24 1009.29 1009.26 1009.15 1008.95 1008.68 1008.38 1008.09 1007.85 1007.71 1007.69 1007.83 1008.13 1008.58 1009.17 1009.86 1010.65 1011.49 1012.36 1013.25 1014.14 1015.05 1015.94 1016.83 1017.70 1018.54 1019.35 1020.10
1010.97 1010.88 1010.76 1010.62 1010.45 1010.25 1010.03 1009.79 1009.56 1009.36 1009.21 1009.12 1009.10 1009.15 1009.24 1009.35 1009.44 1009.49 1009.46 1009.34 1009.14 1008.85 1008.53 1008.20 1007.91 1007.71 1007.64 1007.72 1007.96 1008.38 1008.96 1009.68 1010.51 1011.42 1012.40 1013.41 1014.44 1015.47 1016.50 1017.50 1018.47 1019.39 1020.24 1021.01
1011.05 1010.88 1010.73 1010.58 1010.42 1010.26 1010.09 1009.91 1009.74 1009.59 1009.47 1009.39 1009.37 1009.40 1009.47 1009.55 1009.63 1009.67 1009.65 1009.54 1009.36 1009.10 1008.79 1008.46 1008.17 1007.94 1007.84 1007.88 1008.08 1008.47 1009.03 1009.75 1010.61 1011.58 1012.63 1013.74 1014.87 1016.02 1017.14 1018.24 1019.27 1020.24 1021.11 1021.89
1010.85 1010.65 1010.48 1010.35 1010.25 1010.16 1010.08 1010.00 1009.91 1009.82 1009.74 1009.69 1009.67 1009.68 1009.72 1009.78 1009.83 1009.87 1009.86 1009.78 1009.64 1009.43 1009.18 1008.90 1008.64 1008.44 1008.34 1008.36 1008.55 1008.91 1009.46 1010.18 1011.05 1012.04 1013.14 1014.30 1015.50 1016.71 1017.90 1019.03 1020.09 1021.06 1021.92 1022.67
1010.41 1010.19 1010.05 1009.98 1009.96 1009.98 1010.02 1010.06 1010.07 1010.07 1010.05 1010.02 1010.00 1009.99 1010.00 1010.03 1010.07 1010.10 1010.11 1010.08 1010.01 1009.88 1009.71 1009.52 1009.34 1009.20 1009.14 1009.19 1009.38 1009.74 1010.28 1010.99 1011.85 1012.85 1013.95 1015.13 1016.34 1017.56 1018.74 1019.86 1020.89 1021.82 1022.64 1023.34
1009.78 1009.58 1009.49 1009.51 1009.61 1009.77 1009.95 1010.11 1010.25 1010.34 1010.38 1010.39 1010.37 1010.34 1010.32 1010.33 1010.35 1010.39 1010.43 1010.46 1010.46 1010.44 1010.39 1010.31 1010.24 1010.19 1010.21 1010.31 1010.54 1010.91 1011.45 1012.14 1012.99 1013.96 1015.04 1016.18 1017.35 1018.52 1019.64 1020.70 1021.65 1022.50 1023.24 1023.86
Thickness
5781 5766 5755 5759 5764 5765 5762 5756 5751 5764 5782 5778 5774 5775 5783 5789 5789 5784 5780 5778 5776 5774 5773 5769 5765 5760 5755 5749 5744 5740 5735 5732 5729 5727 5726 5725 5725 5727 5728 5730 5731 5732 5732 5732
5763 5757 5767 5772 5771 5765 5759 5751 5751 5765 5780 5777 5770 5772 5781 5784 5784 5784 5781 5778 5777 5774 5770 5766 5763 5759 5754 5748 5743 5738 5734 5731 5730 5729 5728 5727 5726 5725 5727 5729 5730 5731 5731 5731
5756 5766 5777 5770 5764 5758 5755 5750 5752 5755 5767 5771 5767 5761 5770 5777 5781 5782 5781 5779 5777 5774 5769 5766 5762 5758 5755 5749 5745 5741 5737 5733 5731 5728 5727 5725 5723 5722 5722 5725 5727 5729 5730 5730
5759 5770 5771 5766 5761 5759 5747 5763 5761 5758 5748 5739 5752 5732 5756 5764 5768 5773 5775 5775 5775 5774 5770 5766 5763 5759 5755 5751 5747 5742 5738 5735 5732 5729 5727 5725 5723 5721 5723 5725 5726 5727 5728 5728
5757 5768 5766 5760 5765 5765 5760 5770 5764 5758 5747 5736 5741 5730 5741 5757 5761 5767 5771 5773 5774 5773 5770 5765 5762 5760 5757 5753 5748 5744 5739 5736 5733 5730 5728 5726 5724 5724 5724 5724 5724 5725 5726 5726
5764 5775 5775 5772 5778 5776 5773 5762 5750 5737 5729 5719 5734 5729 5732 5748 5761 5767 5771 5773 5773 5772 5768 5764 5762 5759 5755 5752 5747 5743 5739 5735 5733 5730 5728 5727 5725 5724 5722 5722 5721 5722 5723 5724
5752 5764 5775 5780 5768 5769 5764 5736 5712 5713 5704 5710 5730 5728 5733 5761 5770 5771 5771 5771 5772 5770 5766 5762 5760 5757 5754 5750 5747 5743 5739 5735 5733 5731 5729 5728 5727 5725 5723 5723 5722 5720 5720 5721
5731 5736 5764 5773 5767 5755 5750 5738 5712 5702 5700 5708 5724 5724 5745 5770 5774 5776 5776 5773 5771 5768 5766 5763 5761 5758 5755 5751 5747 5743 5739 5736 5734 5732 5730 5729 5728 5726 5725 5723 5722 5721 5721 5722
5726 5732 5766 5776 5778 5766 5745 5736 5741 5715 5710 5705 5713 5729 5751 5769 5769 5771 5771 5769 5767 5767 5765 5763 5761 5759 5756 5752 5748 5744 5740 5737 5735 5733 5730 5728 5727 5726 5724 5722 5721 5721 5720 5721
5741 5734 5755 5770 5774 5768 5761 5743 5723 5711 5696 5696 5713 5721 5731 5755 5762 5765 5765 5765 5765 5764 5763 5761 5760 5758 5755 5752 5747 5744 5741 5738 5736 5733 5730 5728 5726 5725 5723 5721 5719 5718 5718 5718
5744 5733 5742 5753 5754 5750 5745 5738 5726 5710 5710 5697 5697 5716 5753 5758 5764 5762 5764 5765 5764 5763 5762 5761 5758 5756 5753 5750 5746 5743 5740 5738 5735 5732 5730 5728 5726 5724 5722 5720 5718 5717 5716 5716
5740 5728 5721 5737 5758 5763 5756 5743 5728 5718 5709 5704 5703 5720 5766 5765 5766 5764 5763 5764 5763 5763 5762 5760 5757 5754 5751 5747 5744 5742 5740 5737 5734 5731 5729 5727 5725 5722 5720 5718 5717 5716 5714 5713
5735 5720 5710 5719 5733 5749 5748 5742 5736 5725 5709 5698 5701 5725 5762 5761 5763 5763 5762 5761 5761 5760 5757 5756 5754 5751 5748 5745 5742 5740 5738 5735 5733 5730 5727 5724 5722 5720 5718 5717 5715 5713 5711 5710
5739 5718 5713 5711 5720 5736 5740 5740 5734 5727 5709 5703 5713 5731 5750 5755 5757 5760 5760 5759 5758 5756 5754 5752 5749 5748 5746 5744 5740 5737 5735 5733 5731 5728 5725 5722 5720 5718 5716 5714 5712 5709 5707 5705
5731 5716 5721 5726 5737 5740 5742 5741 5736 5735 5727 5720 5727 5732 5746 5752 5754 5756 5756 5755 5753 5752 5750 5749 5746 5744 5742 5739 5737 5734 5732 5730 5727 5724 5722 5720 5718 5716 5713 5710 5707 5705 5702 5700
5717 5714 5717 5722 5733 5736 5735 5739 5737 5738 5733 5734 5735 5735 5749 5751 5751 5751 5751 5750 5749 5748 5748 5746 5744 5741 5739 5736 5733 5731 5728 5726 5724 5721 5719 5718 5715 5712 5709 5705 5702 5699 5696 5693
5702 5704 5699 5700 5717 5723 5713 5727 5731 5732 5734 5734 5729 5737 5743 5742 5742 5743 5744 5745 5744 5744 5743 5741 5740 5738 5736 5733 5731 5728 5726 5723 5720 5718 5716 5713 5710 5706 5703 5700 5696 5692 5689 5686
5695 5689 5683 5685 5699 5688 5709 5730 5733 5727 5727 5732 5734 5735 5737 5736 5734 5736 5738 5738 5737 5737 5736 5735 5733 5733 5732 5730 5727 5725 5722 5719 5717 5714 5711 5708 5705 5701 5696 5692 5688 5684 5681 5678
5690 5684 5672 5669 5674 5686 5706 5721 5723 5718 5715 5725 5725 5726 5727 5728 5727 5726 5730 5731 5730 5730 5730 5729 5728 5728 5726 5724 5723 5720 5716 5714 5711 5709 5706 5703 5699 5695 5689 5684 5679 5675 5672 5669
5675 5676 5667 5661 5666 5665 5693 5716 5723 5716 5702 5720 5720 5718 5719 5719 5709 5711 5719 5721 5721 5721 5721 5721 5722 5721 5719 5718 5717 5714 5710 5707 5705 5703 5700 5696 5693 5688 5682 5677 5671 5667 5664 5659
5659 5657 5657 5656 5660 5671 5694 5705 5711 5692 5698 5715 5714 5712 5712 5709 5707 5709 5711 5711 5711 5712 5712 5712 5713 5712 5711 5710 5709 5706 5702 5700 5698 5695 5692 5688 5684 5678 5673 5667 5662 5658 5654 5649
5647 5646 5646 5646 5651 5661 5688 5693 5691 5693 5702 5705 5705 5705 5703 5701 5701 5701 5701 5701 5701 5702 5702 5703 5702 5702 5702 5702 5700 5697 5694 5693 5690 5686 5682 5677 5672 5668 5663 5658 5651 5647 5643 5637
5640 5644 5644 5648 5654 5668 5675 5679 5683 5688 5690 5693 5693 5693 5693 5692 5692 5691 5691 5691 5691 5691 5692 5692 5692 5692 5691 5691 5691 5688 5685 5682 5679 5675 5670 5665 5660 5655 5650 5647 5641 5635 5631 5626
5637 5642 5642 5645 5655 5662 5666 5670 5674 5678 5680 5682 5683 5684 5684 5682 5682 5681 5680 5679 5679 5680 5681 5682 5682 5681 5679 5679 5678 5676 5674 5671 5668 5663 5659 5653 5647 5641 5635 5633 5629 5625 5620 5615
5633 5635 5635 5640 5649 5654 5658 5660 5663 5667 5670 5671 5672 5673 5673 5673 5672 5672 5670 5669 5669 5669 5670 5670 5670 5669 5668 5667 5665 5663 5661 5660 5655 5650 5645 5640 5635 5629 5622 5616 5612 5610 5606 5604
5627 5630 5631 5636 5646 5647 5649 5651 5654 5656 5658 5660 5661 5661 5662 5663 5662 5661 5660 5659 5659 5659 5659 5659 5658 5657 5656 5654 5652 5649 5648 5647 5643 5637 5631 5626 5621 5615 5610 5604 5596 5592 5590 5587